Location: Atbuku
(36.4936°N, 30.4362°E)
Time: 05:18:58
(UTC+00:00)

COSMO-SKYMED 1 - Pass Details

Date: 11 December 2025
Orbit: 578 x 580 km, 97.9° (Epoch: 13 January)

Event Time Altitude Azimuth Distance (km) Brightness Sun altitude
Exits shadow 16:15:35 20° 17° (NNE) 1,353 4.0 -18.1°
Maximum altitude 16:18:21 78° 101° (E) 595 2.3 -18.6°
Drops below altitude 10° 16:22:26 10° 189° (S) 1,883 5.3 -19.4°
Sets 16:24:35 0° 191° (S) 2,777 6.2 -19.8°
